When you browse on this site, cookies collect data to enhance your experience and personalize the content and advertising you see.
Visit our Privacy Policy to learn more. By continuing to use the site, you agree to this use of cookies and data.
  • Em Portugal
  • Lista de países
  • Para 7 dias
  • Temperatura da água
  • Mapa do tempo
  • Widgets de tempo
  • user-avatar
    Iniciar Sessão

    Previsão horária em Bridgetown

    Hoje, 6 Dezembro, Sexta-feira

    Tempo Temperatura Precipitação Vento Pressão Humidade
    00:00 +28°C° 0.2 mm 8 m/s 760 mmHg 83%
    01:00 +28°C° 0.2 mm 8 m/s 760 mmHg 83%
    02:00 +28°C° 0.2 mm 8 m/s 760 mmHg 83%
    03:00 +28°C° 0 mm 8 m/s 760 mmHg 82%
    04:00 +28°C° 0 mm 8 m/s 759 mmHg 81%
    05:00 +28°C° 0 mm 7 m/s 759 mmHg 80%
    06:00 +28°C° 0 mm 7 m/s 760 mmHg 79%
    07:00 +29°C° 0 mm 7 m/s 760 mmHg 79%
    08:00 +29°C° 0 mm 7 m/s 760 mmHg 78%
    09:00 +29°C° 0 mm 7 m/s 761 mmHg 77%
    10:00 +30°C° 0 mm 7 m/s 761 mmHg 77%
    11:00 +30°C° 0 mm 7 m/s 761 mmHg 77%
    12:00 +30°C° 0 mm 7 m/s 760 mmHg 76%
    13:00 +30°C° 0 mm 7 m/s 759 mmHg 75%
    14:00 +30°C° 0 mm 7 m/s 759 mmHg 73%
    15:00 +30°C° 0 mm 7 m/s 759 mmHg 76%
    16:00 +29°C° 0 mm 7 m/s 759 mmHg 78%
    17:00 +29°C° 0 mm 6 m/s 759 mmHg 80%
    18:00 +29°C° 0.1 mm 7 m/s 759 mmHg 80%
    19:00 +29°C° 0.1 mm 7 m/s 759 mmHg 80%
    20:00 +28°C° 0.1 mm 7 m/s 760 mmHg 80%
    21:00 +28°C° 0.2 mm 7 m/s 760 mmHg 80%
    22:00 +28°C° 0.2 mm 8 m/s 760 mmHg 80%
    23:00 +28°C° 0.2 mm 8 m/s 760 mmHg 80%

    Amanhã, 7 Dezembro, Sábado

    Tempo Temperatura Precipitação Vento Pressão Humidade
    00:00 +28°C° 0.2 mm 8 m/s 759 mmHg 80%
    01:00 +28°C° 0.2 mm 8 m/s 759 mmHg 80%
    02:00 +28°C° 0.2 mm 8 m/s 759 mmHg 81%
    03:00 +28°C° 0 mm 8 m/s 758 mmHg 80%
    04:00 +28°C° 0 mm 8 m/s 758 mmHg 80%
    05:00 +28°C° 0 mm 8 m/s 758 mmHg 80%
    06:00 +28°C° 0 mm 8 m/s 759 mmHg 79%
    07:00 +29°C° 0 mm 7 m/s 759 mmHg 78%
    08:00 +29°C° 0 mm 7 m/s 760 mmHg 77%
    09:00 +29°C° 0 mm 7 m/s 760 mmHg 76%
    10:00 +29°C° 0 mm 7 m/s 760 mmHg 75%
    11:00 +30°C° 0 mm 7 m/s 760 mmHg 73%
    12:00 +30°C° 0 mm 7 m/s 759 mmHg 73%
    13:00 +30°C° 0 mm 7 m/s 759 mmHg 74%
    14:00 +30°C° 0 mm 7 m/s 758 mmHg 74%
    15:00 +29°C° 0.2 mm 7 m/s 758 mmHg 75%
    16:00 +29°C° 0.2 mm 7 m/s 758 mmHg 77%
    17:00 +29°C° 0.2 mm 7 m/s 758 mmHg 79%
    18:00 +28°C° 0.2 mm 7 m/s 758 mmHg 78%
    19:00 +28°C° 0.2 mm 7 m/s 758 mmHg 78%
    20:00 +28°C° 0.2 mm 8 m/s 759 mmHg 77%
    21:00 +28°C° 0 mm 8 m/s 759 mmHg 78%
    22:00 +28°C° 0 mm 8 m/s 759 mmHg 79%
    23:00 +28°C° 0 mm 8 m/s 759 mmHg 80%

    Depois de amanhã, 8 Dezembro, Domingo

    Tempo Temperatura Precipitação Vento Pressão Humidade
    00:00 +28°C° 0.1 mm 8 m/s 758 mmHg 80%
    01:00 +28°C° 0.1 mm 8 m/s 758 mmHg 79%
    02:00 +28°C° 0.1 mm 8 m/s 758 mmHg 79%
    03:00 +28°C° 0.5 mm 8 m/s 758 mmHg 79%
    04:00 +28°C° 0.5 mm 8 m/s 758 mmHg 80%
    05:00 +28°C° 0.5 mm 8 m/s 757 mmHg 81%
    06:00 +28°C° 0.1 mm 8 m/s 758 mmHg 80%
    07:00 +28°C° 0.1 mm 8 m/s 759 mmHg 78%
    08:00 +29°C° 0.1 mm 8 m/s 759 mmHg 77%
    09:00 +29°C° 0 mm 8 m/s 759 mmHg 75%
    10:00 +29°C° 0 mm 8 m/s 759 mmHg 73%
    11:00 +31°C° 0 mm 8 m/s 759 mmHg 70%
    12:00 +29°C° 0 mm 8 m/s 759 mmHg 70%
    13:00 +29°C° 0 mm 7 m/s 758 mmHg 70%
    14:00 +29°C° 0 mm 7 m/s 758 mmHg 70%
    15:00 +29°C° 0 mm 7 m/s 758 mmHg 72%
    16:00 +29°C° 0 mm 7 m/s 758 mmHg 75%
    17:00 +28°C° 0 mm 6 m/s 758 mmHg 78%
    18:00 +28°C° 0.1 mm 7 m/s 758 mmHg 78%
    19:00 +28°C° 0.1 mm 7 m/s 758 mmHg 78%
    20:00 +28°C° 0.1 mm 8 m/s 759 mmHg 78%
    21:00 +28°C° 0 mm 8 m/s 759 mmHg 77%
    22:00 +28°C° 0 mm 8 m/s 759 mmHg 76%
    23:00 +28°C° 0 mm 8 m/s 759 mmHg 76%

    9 Dezembro, Segunda-feira

    Tempo Temperatura Precipitação Vento Pressão Humidade
    00:00 +28°C° 0 mm 8 m/s 759 mmHg 76%
    01:00 +28°C° 0 mm 8 m/s 758 mmHg 77%
    02:00 +28°C° 0 mm 7 m/s 758 mmHg 78%
    03:00 +28°C° 0.1 mm 8 m/s 758 mmHg 79%
    04:00 +28°C° 0.1 mm 8 m/s 758 mmHg 79%
    05:00 +28°C° 0.1 mm 8 m/s 758 mmHg 80%
    06:00 +28°C° 0 mm 8 m/s 759 mmHg 79%
    07:00 +29°C° 0 mm 8 m/s 759 mmHg 77%
    08:00 +29°C° 0 mm 9 m/s 759 mmHg 76%
    09:00 +29°C° 0 mm 8 m/s 759 mmHg 74%
    10:00 +29°C° 0 mm 8 m/s 759 mmHg 72%
    11:00 +31°C° 0 mm 8 m/s 760 mmHg 70%
    12:00 +31°C° 0 mm 8 m/s 759 mmHg 70%
    13:00 +30°C° 0 mm 7 m/s 759 mmHg 71%
    14:00 +30°C° 0 mm 7 m/s 758 mmHg 72%
    15:00 +29°C° 0 mm 7 m/s 758 mmHg 72%
    16:00 +29°C° 0 mm 7 m/s 758 mmHg 73%
    17:00 +28°C° 0 mm 7 m/s 758 mmHg 73%
    18:00 +28°C° 0 mm 8 m/s 758 mmHg 75%
    19:00 +28°C° 0 mm 8 m/s 758 mmHg 77%
    20:00 +28°C° 0 mm 8 m/s 759 mmHg 78%
    21:00 +28°C° 0 mm 8 m/s 759 mmHg 79%
    22:00 +28°C° 0 mm 8 m/s 759 mmHg 79%
    23:00 +28°C° 0 mm 8 m/s 759 mmHg 79%

    10 Dezembro, Terça-feira

    Tempo Temperatura Precipitação Vento Pressão Humidade
    00:00 +28°C° 0.6 mm 8 m/s 759 mmHg 80%
    01:00 +28°C° 0.6 mm 8 m/s 758 mmHg 81%
    02:00 +28°C° 0.6 mm 8 m/s 758 mmHg 82%
    03:00 +28°C° 1.1 mm 8 m/s 758 mmHg 82%
    04:00 +27°C° 1.1 mm 8 m/s 758 mmHg 83%
    05:00 +27°C° 1.1 mm 8 m/s 758 mmHg 83%
    06:00 +28°C° 1.1 mm 8 m/s 759 mmHg 83%
    07:00 +28°C° 1.1 mm 9 m/s 759 mmHg 82%
    08:00 +28°C° 1.1 mm 9 m/s 760 mmHg 82%
    09:00 +28°C° 0.4 mm 9 m/s 760 mmHg 80%
    10:00 +29°C° 0.4 mm 9 m/s 760 mmHg 79%
    11:00 +29°C° 0.4 mm 9 m/s 760 mmHg 77%
    12:00 +29°C° 0.4 mm 9 m/s 759 mmHg 77%
    13:00 +29°C° 0.4 mm 8 m/s 759 mmHg 76%
    14:00 +31°C° 0.4 mm 8 m/s 758 mmHg 75%
    15:00 +29°C° 0.2 mm 8 m/s 758 mmHg 77%
    16:00 +29°C° 0.2 mm 8 m/s 758 mmHg 79%
    17:00 +28°C° 0.2 mm 8 m/s 758 mmHg 80%
    18:00 +28°C° 0.4 mm 8 m/s 758 mmHg 80%
    19:00 +28°C° 0.4 mm 9 m/s 759 mmHg 79%
    20:00 +28°C° 0.4 mm 9 m/s 759 mmHg 78%
    21:00 +28°C° 0.1 mm 9 m/s 759 mmHg 78%
    22:00 +28°C° 0.1 mm 9 m/s 759 mmHg 77%
    23:00 +28°C° 0.1 mm 9 m/s 759 mmHg 77%

    11 Dezembro, Quarta-feira

    Tempo Temperatura Precipitação Vento Pressão Humidade
    00:00 +28°C° 0 mm 8 m/s 759 mmHg 77%
    01:00 +28°C° 0 mm 8 m/s 759 mmHg 76%
    02:00 +28°C° 0 mm 8 m/s 758 mmHg 76%
    03:00 +28°C° 0.1 mm 8 m/s 758 mmHg 78%
    04:00 +28°C° 0.1 mm 8 m/s 758 mmHg 79%
    05:00 +28°C° 0.1 mm 8 m/s 758 mmHg 81%
    06:00 +28°C° 0.1 mm 8 m/s 759 mmHg 79%
    07:00 +28°C° 0.1 mm 8 m/s 759 mmHg 78%
    08:00 +29°C° 0.1 mm 8 m/s 760 mmHg 76%
    09:00 +29°C° 0.1 mm 8 m/s 760 mmHg 76%
    10:00 +29°C° 0.1 mm 8 m/s 760 mmHg 76%
    11:00 +29°C° 0.1 mm 8 m/s 760 mmHg 75%
    12:00 +29°C° 0.3 mm 7 m/s 759 mmHg 76%
    13:00 +29°C° 0.3 mm 7 m/s 759 mmHg 76%
    14:00 +29°C° 0.3 mm 7 m/s 758 mmHg 76%
    15:00 +29°C° 0.3 mm 7 m/s 758 mmHg 76%
    16:00 +29°C° 0.3 mm 7 m/s 758 mmHg 76%
    17:00 +28°C° 0.3 mm 8 m/s 757 mmHg 76%
    18:00 +28°C° 0 mm 8 m/s 758 mmHg 75%
    19:00 +28°C° 0 mm 8 m/s 758 mmHg 75%
    20:00 +28°C° 0 mm 8 m/s 759 mmHg 74%
    21:00 +28°C° 0.1 mm 8 m/s 759 mmHg 76%
    22:00 +28°C° 0.1 mm 7 m/s 759 mmHg 78%
    23:00 +27°C° 0.1 mm 7 m/s 759 mmHg 80%
    Mostrar mais